FW4468 Weather Reports


time (UTC)temp
C
wind
direction
speed
KPH
gust
KPH
rain 1hr
cm
rain 24hr
cm
rain mn
cm
humidity
%
barometer
mb
20260506121553 11 204 0.0 9.7 0.00 0.00 0.00 68 1017.9
20260506120052 11 150 1.6 8.0 0.00 0.00 0.00 69 1017.6
20260506114552 11 44 1.6 11.3 0.00 0.00 0.00 70 1017.6
20260506113045 11 46 3.2 11.3 0.00 0.00 0.00 74 1017.6
20260506111542 10 234 1.6 8.0 0.00 0.00 0.00 78 1017.3
20260506110042 10 141 0.0 3.2 0.00 0.00 0.00 79 1017.1
20260506104544 10 132 0.0 1.6 0.00 0.00 0.00 79 1017.1
20260506103039 10 132 0.0 3.2 0.00 0.00 0.00 79 1017.0
20260506101538 10 135 0.0 3.2 0.00 0.00 0.00 78 1017.0
20260506100039 10 99 0.0 3.2 0.00 0.00 0.00 77 1016.9
20260506094535 10 158 0.0 0.0 0.00 0.00 0.00 76 1016.9
20260506093033 10 158 0.0 11.3 0.00 0.00 0.00 75 1016.7
20260506091532 10 146 0.0 1.6 0.00 0.00 0.00 73 1016.7
20260506090029 10 145 0.0 1.6 0.00 0.00 0.00 72 1016.6
20260506084527 10 144 0.0 1.6 0.00 0.00 0.00 71 1016.5
20260506083024 10 145 0.0 1.6 0.00 0.00 0.00 71 1016.3
20260506081522 10 145 0.0 1.6 0.00 0.00 0.00 69 1016.1
20260506073015 11 145 0.0 0.0 0.00 0.00 0.00 68 1015.9
20260506071616 11 145 0.0 1.6 0.00 0.00 0.00 68 1015.9
20260506061505 12 145 0.0 0.0 0.00 0.00 0.00 67 1015.5
20260506044502 13 61 0.0 4.8 0.00 0.00 0.00 66 1014.5
20260506043002 13 142 0.0 3.2 0.00 0.00 0.00 66 1014.4
20260506041501 14 112 0.0 3.2 0.00 0.00 0.00 65 1014.3
20260506040001 14 146 0.0 1.6 0.00 0.00 0.00 65 1014.3
20260506034605 15 148 0.0 0.0 0.00 0.00 0.00 64 1014.2
20260506033100 15 148 0.0 1.6 0.00 0.00 0.00 63 1014.0
20260506031603 15 148 0.0 1.6 0.00 0.00 0.00 61 1014.1
20260506030116 16 146 0.0 6.4 0.00 0.00 0.00 60 1014.0
20260506021558 17 150 0.0 8.0 0.00 0.00 0.00 58 1013.9
20260506020051 17 145 1.6 8.0 0.00 0.00 0.00 58 1013.8
20260506014558 17 159 3.2 12.9 0.00 0.00 0.00 57 1013.9
20260506013054 17 147 3.2 11.3 0.00 0.00 0.00 56 1013.8
20260506011550 17 155 1.6 9.7 0.00 0.00 0.00 56 1013.8
20260506010053 17 94 0.0 4.8 0.00 0.00 0.00 56 1013.7
20260506004551 18 160 1.6 14.5 0.00 0.00 0.00 54 1013.8
20260506003047 18 135 3.2 11.3 0.00 0.00 0.00 53 1013.8
20260506001551 18 130 3.2 12.9 0.00 0.00 0.00 53 1013.9
20260506000046 18 123 3.2 14.5 0.00 0.00 0.00 52 1014.0
20260505234545 19 142 3.2 11.3 0.00 0.00 0.00 50 1014.2
20260505233044 19 150 1.6 9.7 0.00 0.00 0.00 50 1014.3
20260505231544 20 146 4.8 14.5 0.00 0.00 0.00 50 1014.4
20260505230048 20 64 3.2 12.9 0.00 0.00 0.00 49 1014.5
20260505224546 20 118 1.6 9.7 0.00 0.00 0.00 51 1014.6
20260505223039 19 67 1.6 11.3 0.00 0.00 0.00 52 1014.7
20260505221538 19 169 1.6 9.7 0.00 0.00 0.00 50 1014.8
20260505220137 19 191 1.6 14.5 0.00 0.00 0.00 50 1014.8
20260505214537 20 141 4.8 12.9 0.00 0.00 0.00 50 1015.0
20260505213038 19 177 3.2 16.1 0.00 0.00 0.00 50 1015.1
20260505211536 19 137 3.2 14.5 0.00 0.00 0.00 50 1015.2
20260505210030 19 187 3.2 12.9 0.00 0.00 0.00 51 1015.1
20260505204532 18 212 4.8 12.9 0.00 0.00 0.00 52 1015.2
20260505203027 17 105 1.6 12.9 0.00 0.00 0.00 55 1015.3
20260505201519 17 160 3.2 8.0 0.00 0.00 0.00 54 1015.3
20260505200017 16 74 1.6 12.9 0.00 0.00 0.00 57 1015.2
20260505194516 16 194 3.2 11.3 0.00 0.00 0.00 56 1015.3
20260505193012 15 169 0.0 9.7 0.00 0.00 0.00 60 1015.4
20260505191509 15 128 1.6 8.0 0.00 0.00 0.00 59 1015.3
20260505190014 15 216 1.6 8.0 0.00 0.00 0.00 59 1015.3
20260505184506 15 255 3.2 12.9 0.00 0.00 0.00 59 1015.3
20260505183004 15 175 3.2 9.7 0.00 0.00 0.00 59 1015.3
20260505181502 14 220 0.0 9.7 0.00 0.00 0.00 60 1015.2
20260505180107 14 174 0.0 8.0 0.00 0.00 0.00 60 1015.2
20260505174558 13 249 1.6 11.3 0.00 0.00 0.00 61 1015.2
20260505173054 13 212 1.6 12.9 0.00 0.00 0.00 62 1015.1
20260505171553 13 209 0.0 6.4 0.00 0.00 0.00 63 1015.0
20260505170050 13 155 1.6 9.7 0.00 0.00 0.00 62 1014.9
20260505164549 13 291 1.6 14.5 0.00 0.00 0.00 62 1014.9
20260505163048 12 256 1.6 8.0 0.00 0.00 0.00 62 1014.7
20260505161546 12 139 3.2 8.0 0.00 0.00 0.00 63 1014.8
20260505153047 12 227 0.0 6.4 0.00 0.00 0.00 64 1014.7
20260505151541 12 156 0.0 11.3 0.00 0.00 0.00 64 1014.6
20260505124529 12 99 0.0 4.8 0.00 0.00 0.00 67 1012.8
20260505123027 11 146 0.0 8.0 0.00 0.00 0.00 67 1012.8